QPF
0.00 0.00 0.00 0.00 0.00 0.00 0.00 0.00 0.00 0.00 0.00 0.00 0.00 0.00 0.00 0.00 0.00 0.00 0.00 0.00 0.00 0.00 0.00 0.01 0.07 0.04 0.03 0.02 0.01 0.03 0.03 0.04 0.05 0.01 0.00 0.00 0.00 0.00 0.02 0.03 0.01 0.00 0.02 0.02 0.01 0.01 0.01 0.01 0.00
0.00 0.00 0.00 0.00 0.00 0.00 0.00 0.00 0.00 0.00 0.00 0.00 0.00 0.00 0.00 0.00 0.00 0.00 0.00 0.00 0.00 0.00 0.00 0.00 0.06 0.04 0.02 0.01 0.01 0.03 0.03 0.04 0.03 0.00 0.00 0.00 0.00 0.00 0.01 0.01 0.00 0.01 0.01 0.01 0.01 0.00 0.00 0.00 0.00
0.00 0.00 0.00 0.00 0.00 0.00 0.00 0.00 0.00 0.00 0.00 0.00 0.00 0.00 0.00 0.00 0.00 0.00 0.00 0.00 0.00 0.00 0.00 0.01 0.08 0.05 0.03 0.00 0.00 0.00 0.01 0.01 0.00 0.01 0.00 0.00 0.00 0.00 0.01 0.00 0.00 0.00 0.01 0.01 0.00 0.00 0.00 0.00 0.00
0.00 0.00 0.00 0.00 0.00 0.00 0.00 0.00 0.00 0.00 0.00 0.00 0.00 0.00 0.00 0.00 0.00 0.00 0.00 0.00 0.00 0.00 0.00 0.03 0.07 0.02 0.01 0.00 0.00 0.00 0.00 0.00 0.00 0.00 0.01 0.00 0.00 0.00 0.00 0.00 0.00 0.00 0.01 0.00 0.00 0.00 0.00 0.00 0.00
0.00 0.00 0.00 0.00 0.00 0.00 0.00 0.00 0.00 0.00 0.00 0.00 0.00 0.00 0.00 0.00 0.00 0.00 0.00 0.00 0.00 0.01 0.01 0.01 0.06 0.01 0.00 0.00 0.00 0.00 0.00 0.00 0.01 0.01 0.00 0.00 0.00 0.00 0.00 0.00 0.00 0.00 0.00 0.00 0.00 0.00 0.00 0.00 0.00
0.00 0.00 0.00 0.00 0.00 0.00 0.00 0.00 0.00 0.00 0.00 0.00 0.00 0.00 0.00 0.00 0.00 0.00 0.00 0.00 0.00 0.01 0.01 0.00 0.02 0.00 0.00 0.00 0.00 0.00 0.00 0.00 0.01 0.01 0.00 0.00 0.00 0.00 0.00 0.00 0.00 0.00 0.00 0.00 0.00 0.00 0.00 0.00 0.01
0.00 0.00 0.00 0.00 0.00 0.00 0.00 0.00 0.00 0.00 0.00 0.00 0.00 0.00 0.00 0.00 0.00 0.00 0.01 0.01 0.00 0.00 0.00 0.00 0.00 0.00 0.00 0.00 0.00 0.00 0.00 0.01 0.01 0.01 0.01 0.00 0.00 0.00 0.00 0.00 0.00 0.00 0.00 0.00 0.00 0.00 0.00 0.00 0.00
0.00 0.00 0.00 0.00 0.00 0.00 0.00 0.00 0.00 0.00 0.00 0.00 0.00 0.00 0.00 0.00 0.00 0.00 0.01 0.01 0.00 0.00 0.00 0.00 0.00 0.00 0.00 0.00 0.00 0.00 0.00 0.00 0.00 0.00 0.00 0.00 0.00 0.00 0.00 0.00 0.00 0.00 0.00 0.00 0.00 0.00 0.00 0.00 0.00
0.00 0.00 0.00 0.00 0.00 0.00 0.00 0.00 0.00 0.00 0.00 0.00 0.00 0.00 0.00 0.00 0.00 0.00 0.01 0.01 0.01 0.01 0.00 0.00 0.00 0.00 0.00 0.00 0.00 0.01 0.00 0.00 0.00 0.00 0.00 0.00 0.00 0.00 0.00 0.00 0.00 0.00 0.00 0.00 0.00 0.00 0.00 0.00 0.00
0.00 0.00 0.00 0.00 0.00 0.00 0.00 0.00 0.00 0.00 0.00 0.00 0.00 0.00 0.00 0.00 0.00 0.00 0.00 0.00 0.00 0.01 0.00 0.00 0.00 0.00 0.00 0.00 0.01 0.01 0.00 0.00 0.00 0.00 0.00 0.00 0.00 0.00 0.00 0.00 0.00 0.00 0.00 0.00 0.00 0.00 0.00 0.00 0.00
0.00 0.00 0.00 0.00 0.00 0.00 0.00 0.00 0.00 0.00 0.00 0.00 0.00 0.00 0.00 0.00 0.00 0.00 0.00 0.00 0.00 0.01 0.00 0.00 0.00 0.00 0.00 0.00 0.01 0.01 0.00 0.00 0.00 0.00 0.00 0.00 0.00 0.00 0.00 0.00 0.00 0.00 0.00 0.00 0.00 0.00 0.00 0.00 0.00
0.00 0.00 0.00 0.00 0.00 0.00 0.00 0.00 0.00 0.00 0.00 0.00 0.00 0.00 0.00 0.00 0.00 0.00 0.00 0.00 0.00 0.01 0.00 0.00 0.00 0.00 0.00 0.00 0.00 0.00 0.00 0.00 0.00 0.00 0.00 0.00 0.00 0.00 0.00 0.00 0.00 0.00 0.00 0.00 0.00 0.00 0.00 0.00 0.00
0.00 0.00 0.00 0.00 0.00 0.00 0.00 0.00 0.00 0.00 0.00 0.00 0.00 0.00 0.00 0.00 0.00 0.00 0.00 0.00 0.00 0.00 0.00 0.00 0.00 0.00 0.00 0.00 0.00 0.00 0.00 0.00 0.00 0.00 0.00 0.00 0.00 0.00 0.00 0.00 0.00 0.00 0.00 0.00 0.00 0.00 0.00 0.00 0.00
0.00 0.00 0.00 0.00 0.00 0.00 0.00 0.00 0.00 0.00 0.00 0.00 0.00 0.00 0.00 0.00 0.00 0.00 0.00 0.00 0.00 0.00 0.00 0.00 0.00 0.00 0.00 0.00 0.00 0.00 0.00 0.00 0.00 0.00 0.00 0.00 0.00 0.00 0.00 0.00 0.00 0.00 0.00 0.00 0.00 0.00 0.00 0.00 0.00
0.00 0.00 0.00 0.00 0.00 0.00 0.00 0.00 0.00 0.00 0.00 0.00 0.00 0.00 0.00 0.00 0.00 0.00 0.00 0.00 0.00 0.00 0.00 0.00 0.00 0.00 0.00 0.00 0.00 0.00 0.00 0.00 0.00 0.00 0.00 0.00 0.00 0.00 0.00 0.00 0.00 0.00 0.00 0.00 0.00 0.00 0.00 0.00 0.00
0.00 0.00 0.00 0.00 0.00 0.00 0.00 0.00 0.00 0.00 0.00 0.00 0.00 0.00 0.00 0.00 0.00 0.00 0.00 0.00 0.00 0.00 0.00 0.00 0.00 0.00 0.00 0.00 0.00 0.00 0.00 0.00 0.00 0.00 0.00 0.00 0.00 0.00 0.00 0.00 0.00 0.00 0.00 0.00 0.00 0.00 0.00 0.00 0.00
0.00 0.00 0.00 0.00 0.00 0.00 0.00 0.00 0.00 0.00 0.00 0.00 0.00 0.00 0.00 0.00 0.00 0.00 0.00 0.00 0.00 0.00 0.00 0.00 0.00 0.00 0.00 0.01 0.00 0.00 0.00 0.00 0.00 0.00 0.00 0.00 0.00 0.00 0.00 0.00 0.00 0.00 0.00 0.00 0.00 0.00 0.00 0.00 0.00
0.00 0.00 0.00 0.00 0.00 0.00 0.00 0.00 0.00 0.00 0.00 0.00 0.00 0.00 0.00 0.00 0.00 0.00 0.00 0.00 0.00 0.00 0.00 0.00 0.00 0.00 0.00 0.00 0.00 0.00 0.00 0.00 0.00 0.00 0.00 0.00 0.00 0.00 0.00 0.00 0.00 0.00 0.00 0.00 0.00 0.00 0.00 0.00 0.00
0.00 0.00 0.00 0.00 0.00 0.00 0.00 0.00 0.00 0.00 0.00 0.00 0.00 0.00 0.00 0.00 0.00 0.00 0.00 0.00 0.00 0.00 0.00 0.00 0.00 0.00 0.00 0.00 0.00 0.00 0.00 0.00 0.00 0.00 0.00 0.00 0.00 0.00 0.00 0.00 0.00 0.00 0.00 0.00 0.00 0.00 0.00 0.00 0.00
0.00 0.00 0.00 0.00 0.00 0.00 0.00 0.00 0.00 0.00 0.00 0.00 0.00 0.00 0.00 0.00 0.00 0.00 0.00 0.00 0.00 0.00 0.00 0.00 0.00 0.00 0.00 0.00 0.00 0.00 0.00 0.00 0.00 0.00 0.00 0.00 0.00 0.00 0.00 0.00 0.00 0.00 0.00 0.00 0.00 0.00 0.00 0.00 0.00
0.00 0.00 0.00 0.00 0.00 0.00 0.00 0.00 0.00 0.00 0.00 0.00 0.00 0.00 0.00 0.00 0.00 0.00 0.00 0.00 0.00 0.00 0.00 0.00 0.00 0.00 0.00 0.00 0.00 0.00 0.00 0.00 0.00 0.00 0.00 0.00 0.00 0.00 0.00 0.00 0.00 0.00 0.00 0.00 0.00 0.00 0.00 0.00 0.00
0.00 0.00 0.00 0.00 0.00 0.00 0.00 0.00 0.00 0.00 0.00 0.00 0.00 0.00 0.00 0.00 0.00 0.00 0.00 0.00 0.00 0.00 0.00 0.00 0.00 0.00 0.00 0.00 0.00 0.00 0.00 0.00 0.00 0.00 0.00 0.00 0.00 0.00 0.00 0.00 0.00 0.00 0.00 0.00 0.00 0.00 0.00 0.00 0.00
0.00 0.00 0.00 0.00 0.00 0.00 0.00 0.00 0.00 0.00 0.00 0.00 0.00 0.00 0.00 0.00 0.00 0.00 0.00 0.00 0.00 0.00 0.00 0.00 0.00 0.00 0.00 0.00 0.00 0.00 0.00 0.00 0.00 0.00 0.00 0.00 0.00 0.00 0.00 0.00 0.00 0.00 0.00 0.00 0.00 0.00 0.00 0.00 0.00
0.00 0.00 0.00 0.00 0.00 0.00 0.00 0.00 0.00 0.00 0.00 0.00 0.00 0.00 0.00 0.00 0.00 0.00 0.00 0.00 0.00 0.00 0.00 0.00 0.00 0.00 0.00 0.00 0.00 0.00 0.00 0.00 0.00 0.00 0.00 0.00 0.00 0.00 0.00 0.00 0.00 0.00 0.00 0.00 0.00 0.00 0.00 0.00 0.00
0.00 0.00 0.00 0.00 0.00 0.00 0.00 0.00 0.00 0.00 0.00 0.00 0.00 0.00 0.00 0.00 0.00 0.00 0.00 0.00 0.00 0.00 0.00 0.00 0.00 0.00 0.00 0.00 0.00 0.00 0.00 0.00 0.00 0.00 0.00 0.00 0.00 0.00 0.00 0.00 0.00 0.00 0.00 0.00 0.00 0.00 0.00 0.00 0.00
0.00 0.00 0.00 0.00 0.00 0.00 0.00 0.00 0.00 0.00 0.00 0.00 0.00 0.00 0.00 0.00 0.00 0.00 0.00 0.00 0.00 0.00 0.00 0.00 0.00 0.00 0.00 0.00 0.00 0.00 0.00 0.00 0.00 0.00 0.00 0.00 0.00 0.00 0.00 0.00 0.00 0.00 0.00 0.00 0.00 0.00 0.00 0.00 0.00
0.00 0.00 0.00 0.00 0.00 0.00 0.00 0.00 0.00 0.00 0.00 0.00 0.00 0.00 0.00 0.00 0.00 0.00 0.00 0.00 0.00 0.00 0.00 0.00 0.00 0.00 0.00 0.00 0.00 0.00 0.00 0.00 0.00 0.00 0.00 0.00 0.00 0.00 0.00 0.00 0.00 0.00 0.00 0.00 0.00 0.00 0.00 0.00 0.00
0.00 0.00 0.00 0.00 0.00 0.00 0.00 0.00 0.00 0.00 0.00 0.00 0.00 0.00 0.00 0.00 0.00 0.00 0.00 0.00 0.00 0.00 0.00 0.00 0.00 0.00 0.00 0.00 0.00 0.00 0.00 0.00 0.00 0.00 0.00 0.00 0.00 0.00 0.00 0.00 0.00 0.00 0.00 0.00 0.00 0.00 0.00 0.00 0.00
0.00 0.00 0.00 0.00 0.00 0.00 0.00 0.00 0.00 0.00 0.00 0.00 0.00 0.00 0.00 0.00 0.00 0.00 0.00 0.00 0.00 0.00 0.00 0.00 0.00 0.00 0.00 0.00 0.00 0.00 0.00 0.00 0.00 0.00 0.00 0.00 0.00 0.00 0.00 0.00 0.00 0.00 0.00 0.00 0.00 0.00 0.00 0.00 0.00
0.00 0.00 0.00 0.00 0.00 0.00 0.00 0.00 0.00 0.00 0.00 0.00 0.00 0.00 0.00 0.00 0.00 0.00 0.00 0.00 0.00 0.00 0.00 0.00 0.00 0.00 0.00 0.00 0.00 0.00 0.00 0.00 0.00 0.00 0.00 0.00 0.00 0.00 0.00 0.00 0.00 0.00 0.00 0.00 0.00 0.00 0.00 0.00 0.00
MSLP
1012.30 1012.15 1011.79 1011.20 1010.73 1009.12 1007.77 1007.89 1008.13 1008.47 1009.03 1009.70 1010.31 1010.69 1011.16 1011.24 1012.06 1013.32 1014.42 1014.68 1014.95 1015.47 1015.94 1016.63 1016.96 1017.30 1017.44 1017.55 1017.67 1017.81 1017.95 1018.04 1017.95 1018.10 1018.28 1018.36 1018.30 1018.42 1018.48 1018.58 1018.63 1018.59 1018.65 1018.81 1018.89 1019.01 1019.09 1019.23 1019.33
1012.04 1012.01 1011.42 1010.31 1009.31 1007.80 1007.10 1007.62 1007.89 1008.44 1009.14 1010.03 1010.93 1011.27 1011.58 1012.53 1013.47 1014.18 1014.59 1014.86 1015.21 1015.53 1015.99 1016.52 1017.24 1017.42 1017.68 1017.90 1018.06 1018.23 1018.36 1018.43 1018.44 1018.53 1018.65 1018.83 1018.84 1018.89 1018.90 1018.95 1019.09 1019.08 1019.24 1019.46 1019.53 1019.63 1019.72 1019.75 1019.84
1012.00 1011.61 1010.20 1009.27 1008.27 1007.04 1006.70 1007.44 1007.73 1009.07 1009.84 1010.04 1010.86 1011.60 1012.24 1013.16 1013.88 1014.24 1014.58 1015.08 1015.48 1015.81 1016.20 1017.00 1017.48 1017.80 1017.90 1018.17 1018.35 1018.57 1018.73 1018.71 1018.81 1019.02 1019.20 1019.34 1019.46 1019.48 1019.49 1019.62 1019.74 1019.78 1019.84 1020.04 1020.14 1020.24 1020.24 1020.33 1020.31
1011.53 1011.12 1010.27 1008.67 1007.36 1007.19 1007.19 1007.39 1008.12 1009.28 1010.36 1010.34 1010.59 1011.91 1013.22 1013.93 1013.89 1014.49 1014.89 1015.22 1015.63 1016.12 1016.54 1017.58 1017.92 1018.13 1018.37 1018.57 1018.70 1018.85 1019.01 1019.16 1019.32 1019.54 1019.73 1019.83 1019.93 1020.06 1020.16 1020.16 1020.26 1020.24 1020.31 1020.46 1020.66 1020.60 1020.65 1020.73 1020.74
1011.28 1009.89 1008.63 1007.89 1007.23 1007.27 1007.59 1007.85 1008.35 1008.71 1009.42 1010.25 1010.70 1012.18 1013.74 1014.36 1014.65 1014.83 1015.24 1015.55 1015.73 1016.28 1016.91 1017.61 1018.09 1018.34 1018.68 1018.89 1019.09 1019.29 1019.49 1019.65 1019.82 1019.96 1020.16 1020.30 1020.39 1020.46 1020.61 1020.72 1020.65 1020.62 1020.69 1020.82 1020.88 1020.91 1021.07 1021.09 1021.17
1010.33 1009.05 1007.54 1006.91 1006.86 1007.22 1007.68 1008.04 1008.45 1008.73 1009.43 1010.23 1011.04 1012.26 1014.01 1014.71 1015.07 1015.18 1015.56 1015.81 1015.96 1016.49 1017.12 1017.88 1018.43 1018.69 1019.00 1019.22 1019.50 1019.73 1019.92 1020.04 1020.23 1020.38 1020.53 1020.66 1020.74 1020.81 1020.94 1021.05 1021.11 1021.12 1021.21 1021.31 1021.34 1021.33 1021.37 1021.44 1021.55
1009.41 1008.27 1006.83 1006.57 1006.57 1006.96 1007.38 1008.15 1008.39 1008.67 1009.33 1010.07 1010.76 1011.97 1014.18 1015.07 1015.37 1015.76 1015.74 1016.12 1016.35 1016.81 1017.17 1017.82 1018.40 1018.96 1019.31 1019.62 1019.87 1020.13 1020.32 1020.48 1020.63 1020.81 1020.96 1021.10 1021.16 1021.24 1021.32 1021.47 1021.51 1021.58 1021.69 1021.72 1021.67 1021.68 1021.75 1021.90 1022.00
1009.57 1008.26 1007.03 1006.38 1006.27 1006.46 1007.68 1008.26 1008.44 1008.96 1009.60 1010.47 1010.81 1011.56 1013.74 1014.67 1015.52 1015.94 1016.16 1016.37 1016.77 1017.03 1017.31 1017.75 1018.36 1018.82 1019.53 1019.89 1020.22 1020.43 1020.65 1020.86 1021.04 1021.39 1021.56 1021.67 1021.76 1021.83 1021.89 1021.93 1022.02 1022.04 1022.08 1022.13 1022.17 1022.12 1022.19 1022.30 1022.46
1010.01 1008.21 1006.39 1005.98 1005.93 1006.36 1007.96 1008.26 1009.40 1010.06 1010.15 1010.68 1011.33 1011.30 1012.18 1014.44 1015.44 1016.06 1016.49 1016.68 1016.94 1017.26 1017.62 1017.98 1018.39 1019.00 1019.68 1020.10 1020.50 1020.85 1021.21 1021.40 1021.71 1021.94 1022.04 1021.79 1021.68 1021.85 1022.02 1022.48 1022.45 1022.43 1022.46 1022.49 1022.54 1022.61 1022.67 1022.69 1022.80
1009.32 1007.80 1006.27 1006.07 1006.02 1006.26 1007.65 1007.76 1008.85 1009.63 1010.14 1010.87 1011.52 1012.16 1013.27 1014.65 1015.44 1015.82 1016.27 1016.58 1016.92 1017.18 1017.68 1018.07 1018.53 1019.35 1019.89 1020.30 1020.41 1020.73 1021.29 1021.29 1021.58 1021.73 1021.79 1021.90 1021.97 1022.17 1022.36 1022.78 1022.86 1022.90 1022.93 1022.98 1022.97 1022.93 1022.82 1022.42 1022.27
1008.84 1007.67 1007.16 1006.87 1006.57 1006.67 1007.42 1008.04 1008.74 1008.89 1009.49 1009.71 1010.65 1012.17 1013.76 1014.57 1015.23 1015.88 1016.37 1016.73 1016.82 1017.32 1017.82 1018.12 1018.62 1019.12 1019.71 1020.38 1020.29 1020.79 1021.08 1021.42 1021.67 1021.82 1021.96 1022.10 1022.23 1022.26 1022.23 1022.38 1022.52 1022.68 1022.91 1022.66 1022.78 1022.78 1022.83 1022.85 1022.73
1008.84 1008.32 1007.59 1007.05 1007.19 1007.08 1007.41 1007.91 1008.45 1008.80 1008.76 1009.28 1010.42 1012.12 1013.53 1014.37 1014.96 1015.51 1016.12 1016.60 1016.87 1017.52 1018.23 1018.39 1018.67 1019.17 1019.52 1020.04 1020.26 1020.61 1021.01 1021.36 1021.60 1021.88 1022.09 1022.08 1022.20 1022.37 1022.33 1022.47 1022.68 1022.77 1022.83 1022.90 1022.89 1022.95 1023.12 1023.20 1023.21
1008.68 1008.17 1008.08 1007.57 1007.46 1007.30 1007.66 1007.73 1007.88 1008.79 1009.68 1009.75 1010.77 1012.46 1013.54 1014.40 1014.94 1015.46 1016.24 1016.78 1017.28 1017.70 1018.21 1018.77 1018.80 1019.18 1019.63 1020.01 1020.33 1020.65 1021.01 1021.26 1021.56 1021.90 1022.20 1022.18 1022.29 1022.47 1022.55 1022.73 1022.80 1022.90 1022.99 1023.00 1023.08 1023.12 1023.17 1023.20 1023.33
1008.30 1008.44 1008.25 1008.07 1007.76 1007.52 1007.64 1008.26 1008.56 1009.10 1009.87 1010.26 1010.76 1012.01 1013.19 1013.69 1014.16 1014.89 1015.52 1016.10 1017.11 1017.76 1018.35 1018.81 1019.14 1019.24 1019.76 1020.06 1020.48 1020.73 1021.01 1021.29 1021.57 1021.84 1022.09 1022.28 1022.36 1022.57 1022.72 1022.92 1023.05 1023.16 1023.25 1023.32 1023.36 1023.38 1023.49 1023.56 1023.59
1008.45 1008.61 1008.54 1008.25 1008.01 1007.79 1007.83 1008.65 1008.42 1009.06 1009.87 1010.56 1010.76 1011.80 1012.68 1013.22 1013.95 1014.34 1014.97 1015.57 1016.67 1017.54 1018.26 1018.91 1019.27 1019.27 1019.66 1020.02 1020.49 1020.79 1021.03 1021.32 1021.51 1021.80 1022.18 1022.32 1022.44 1022.62 1022.77 1022.99 1023.13 1023.40 1023.61 1023.61 1023.61 1023.74 1023.76 1023.70 1023.76
1008.54 1008.53 1008.07 1007.86 1008.09 1008.09 1007.57 1007.44 1008.56 1009.38 1009.74 1010.39 1011.01 1011.67 1012.55 1013.05 1013.64 1014.17 1014.91 1015.61 1016.47 1017.39 1018.07 1018.82 1019.33 1019.41 1019.44 1019.84 1020.34 1020.69 1021.04 1021.23 1021.35 1021.71 1022.05 1022.39 1022.57 1022.71 1022.88 1023.05 1023.29 1023.58 1023.67 1023.71 1023.76 1023.76 1023.84 1023.85 1023.86
1007.96 1007.24 1007.28 1007.87 1008.03 1007.84 1007.72 1007.15 1008.59 1009.45 1009.65 1010.22 1010.94 1011.60 1012.37 1013.07 1013.67 1013.97 1014.69 1015.40 1016.16 1017.17 1017.94 1018.59 1019.08 1019.23 1019.38 1019.73 1020.27 1020.65 1021.19 1021.54 1021.90 1021.63 1021.96 1022.35 1022.62 1022.81 1022.87 1023.09 1023.46 1023.67 1023.75 1023.82 1023.92 1024.10 1024.00 1024.00 1024.12
1006.02 1006.76 1007.21 1007.10 1007.94 1007.82 1007.57 1007.54 1008.69 1009.48 1009.61 1009.97 1010.82 1011.89 1012.42 1012.75 1013.20 1013.78 1014.52 1015.11 1015.87 1016.69 1017.41 1018.07 1018.44 1018.79 1019.15 1019.80 1020.50 1020.93 1021.31 1021.67 1021.87 1021.59 1021.90 1022.34 1022.61 1022.92 1023.00 1023.29 1023.58 1023.71 1023.85 1023.97 1024.07 1024.18 1024.42 1024.48 1024.40
1006.83 1007.21 1007.42 1007.55 1007.94 1007.79 1007.47 1007.67 1008.54 1009.53 1009.85 1010.10 1010.82 1011.98 1012.48 1012.80 1013.23 1013.97 1014.50 1015.01 1015.57 1016.13 1016.72 1017.28 1017.87 1018.39 1018.90 1019.81 1020.23 1020.87 1021.29 1021.84 1021.95 1021.80 1022.07 1022.24 1022.59 1022.94 1023.12 1023.33 1023.66 1023.80 1023.85 1024.02 1024.07 1024.32 1024.38 1024.63 1024.73
1007.33 1007.36 1007.55 1008.48 1008.54 1008.22 1007.95 1007.90 1008.73 1009.67 1009.25 1009.51 1010.36 1011.41 1012.31 1012.98 1013.19 1013.78 1014.32 1014.84 1015.29 1015.79 1016.36 1016.90 1017.45 1017.97 1018.58 1019.36 1019.90 1020.44 1021.12 1021.69 1021.77 1022.28 1022.42 1022.29 1022.56 1022.89 1023.07 1023.33 1023.57 1023.79 1023.99 1024.16 1024.29 1024.36 1024.48 1024.82 1024.98
1007.50 1007.17 1007.85 1007.95 1008.82 1008.78 1008.34 1008.25 1008.78 1009.44 1009.87 1009.94 1010.19 1010.84 1011.55 1011.97 1012.48 1013.31 1013.89 1014.38 1014.97 1015.39 1015.94 1016.51 1017.11 1017.74 1018.54 1019.14 1019.59 1020.24 1020.95 1021.72 1022.13 1022.39 1022.53 1022.34 1022.55 1022.97 1023.09 1023.36 1023.59 1023.88 1023.97 1024.20 1024.46 1024.56 1024.49 1024.59 1025.11
1007.89 1007.92 1008.13 1008.47 1008.39 1008.12 1008.24 1007.15 1007.69 1008.41 1009.05 1009.49 1009.78 1010.25 1010.59 1011.15 1011.92 1012.57 1013.29 1013.86 1014.36 1014.87 1015.52 1016.16 1016.81 1017.39 1018.01 1018.58 1019.00 1019.43 1020.00 1020.50 1021.16 1021.77 1022.24 1022.35 1022.57 1022.93 1023.28 1023.60 1023.76 1024.01 1024.17 1024.34 1024.57 1024.67 1024.71 1024.75 1024.85
1008.23 1008.41 1008.57 1008.82 1008.64 1008.66 1008.47 1007.57 1005.85 1007.56 1007.79 1008.22 1008.63 1009.23 1009.77 1010.23 1010.91 1011.54 1012.31 1012.84 1013.45 1014.32 1014.95 1015.66 1016.33 1016.90 1017.51 1018.12 1018.44 1018.89 1019.28 1019.72 1020.49 1021.37 1022.06 1022.50 1022.64 1022.97 1023.33 1023.58 1023.79 1024.09 1024.25 1024.51 1024.68 1024.94 1024.99 1025.10 1025.10
1008.62 1008.89 1009.21 1009.54 1009.46 1008.71 1007.42 1007.03 1005.05 1005.79 1006.01 1006.72 1007.41 1008.17 1008.78 1009.24 1010.01 1010.72 1011.41 1012.27 1012.91 1013.87 1014.56 1015.07 1015.64 1016.29 1016.95 1017.60 1018.05 1018.44 1018.84 1019.37 1020.06 1020.89 1021.74 1022.30 1022.68 1023.04 1023.32 1023.56 1023.73 1024.11 1024.40 1024.67 1024.92 1025.21 1025.34 1025.50 1025.65
1008.41 1008.19 1009.10 1009.73 1009.39 1007.80 1007.97 1007.19 1004.74 1004.87 1004.97 1005.30 1006.06 1006.79 1007.54 1008.50 1009.31 1009.82 1010.55 1011.39 1012.21 1013.04 1013.82 1014.50 1015.04 1015.56 1016.24 1016.94 1017.54 1018.02 1018.52 1018.87 1019.44 1020.16 1020.91 1021.80 1022.32 1022.71 1023.08 1023.39 1023.77 1024.10 1024.53 1024.92 1025.21 1025.47 1025.66 1025.85 1026.05
1006.93 1006.61 1006.40 1006.67 1007.17 1007.60 1008.52 1006.41 1004.62 1004.72 1005.24 1005.64 1005.90 1006.24 1007.17 1008.06 1008.62 1009.10 1009.78 1010.61 1011.45 1012.26 1013.06 1013.70 1014.30 1014.82 1015.50 1016.19 1017.03 1017.59 1018.08 1018.51 1018.88 1019.56 1020.16 1020.89 1021.35 1021.79 1022.50 1023.15 1023.59 1024.20 1024.68 1025.11 1025.43 1025.75 1026.08 1026.39 1026.69
1006.95 1006.74 1006.82 1007.23 1007.94 1007.41 1006.84 1006.61 1005.82 1005.39 1005.73 1005.94 1006.08 1006.69 1006.95 1007.17 1007.78 1008.24 1009.16 1010.04 1010.70 1011.51 1012.22 1012.77 1013.47 1014.13 1014.75 1015.38 1016.23 1016.99 1017.53 1018.08 1018.58 1019.02 1019.62 1020.16 1020.70 1021.25 1022.26 1022.98 1023.41 1024.30 1025.05 1025.17 1025.43 1025.86 1026.35 1026.66 1027.05
1005.81 1006.34 1007.23 1006.97 1007.07 1006.53 1006.50 1005.73 1004.79 1004.91 1005.12 1005.55 1005.84 1006.09 1006.28 1006.80 1007.49 1008.24 1008.86 1009.59 1010.21 1010.81 1011.62 1012.27 1012.77 1013.28 1013.88 1014.66 1015.28 1015.98 1016.78 1017.46 1018.04 1018.47 1019.06 1019.62 1020.33 1021.24 1022.04 1022.77 1023.31 1024.25 1025.22 1025.63 1025.77 1026.40 1026.65 1026.97 1027.33
1006.02 1005.86 1006.13 1006.10 1006.66 1005.93 1005.55 1004.87 1004.38 1004.18 1004.40 1004.55 1004.83 1005.23 1005.76 1006.76 1007.50 1008.16 1008.64 1009.25 1009.88 1010.58 1011.19 1011.82 1012.34 1012.81 1013.28 1013.95 1014.59 1015.20 1015.88 1016.68 1017.33 1017.87 1018.53 1019.14 1019.94 1020.78 1021.65 1022.47 1023.45 1024.26 1025.16 1025.62 1025.79 1026.36 1026.82 1027.26 1027.81
1005.42 1005.27 1005.48 1005.50 1006.25 1006.51 1005.59 1004.40 1004.39 1004.62 1004.87 1005.07 1005.08 1005.80 1006.45 1007.19 1007.87 1008.42 1008.80 1009.32 1009.83 1010.25 1010.77 1011.28 1011.96 1012.35 1012.67 1013.16 1013.83 1014.44 1015.18 1015.98 1016.62 1017.30 1018.03 1018.89 1019.66 1020.38 1021.40 1022.67 1023.48 1024.10 1024.73 1025.03 1025.70 1026.43 1027.09 1027.69 1028.35
Thickness
5683 5687 5692 5693 5679 5689 5689 5691 5703 5697 5696 5703 5704 5698 5694 5702 5690 5679 5687 5688 5687 5684 5680 5676 5675 5675 5675 5675 5676 5676 5677 5677 5679 5678 5678 5679 5681 5681 5682 5684 5684 5685 5685 5686 5687 5687 5688 5687 5690
5681 5684 5688 5687 5679 5679 5692 5702 5696 5703 5706 5705 5698 5697 5695 5686 5688 5684 5685 5690 5687 5685 5682 5679 5676 5676 5675 5674 5674 5674 5674 5674 5674 5674 5674 5675 5676 5677 5678 5680 5681 5682 5682 5682 5683 5684 5685 5686 5686
5677 5682 5683 5682 5683 5684 5691 5700 5706 5699 5702 5703 5697 5702 5696 5685 5688 5688 5692 5691 5688 5684 5682 5678 5676 5675 5674 5673 5672 5672 5671 5671 5671 5670 5670 5671 5671 5672 5673 5674 5675 5677 5678 5678 5678 5680 5681 5681 5683
5672 5674 5678 5677 5682 5696 5697 5704 5704 5694 5695 5706 5708 5690 5692 5693 5693 5693 5693 5691 5690 5685 5682 5676 5675 5674 5671 5670 5669 5669 5669 5668 5668 5668 5668 5668 5667 5667 5668 5671 5672 5674 5675 5676 5676 5678 5679 5679 5680
5668 5676 5669 5674 5685 5694 5698 5702 5704 5700 5703 5703 5708 5687 5682 5690 5694 5695 5692 5691 5690 5687 5682 5678 5676 5674 5671 5670 5668 5668 5666 5666 5665 5666 5665 5665 5665 5665 5666 5668 5670 5672 5673 5673 5675 5675 5676 5677 5678
5659 5674 5669 5672 5684 5693 5695 5701 5703 5704 5705 5703 5700 5692 5684 5692 5690 5693 5692 5690 5689 5686 5682 5677 5675 5673 5671 5669 5668 5666 5664 5665 5665 5664 5663 5664 5663 5664 5665 5666 5668 5669 5669 5670 5672 5673 5674 5675 5676
5660 5669 5678 5685 5686 5687 5695 5702 5700 5704 5703 5701 5709 5694 5685 5685 5690 5691 5693 5690 5687 5685 5683 5679 5676 5673 5671 5669 5667 5665 5664 5663 5662 5662 5662 5662 5663 5664 5664 5664 5665 5666 5667 5668 5671 5672 5672 5672 5673
5658 5671 5668 5683 5682 5688 5694 5696 5707 5703 5700 5709 5712 5696 5682 5691 5691 5691 5691 5690 5686 5685 5684 5681 5678 5675 5670 5668 5666 5665 5663 5662 5661 5660 5661 5661 5661 5661 5662 5663 5663 5665 5665 5666 5667 5669 5670 5670 5670
5650 5657 5668 5680 5687 5696 5690 5690 5694 5697 5696 5702 5704 5710 5711 5696 5692 5689 5687 5687 5686 5685 5683 5680 5678 5675 5671 5668 5666 5664 5662 5661 5660 5659 5659 5661 5662 5662 5662 5661 5662 5663 5664 5665 5666 5666 5667 5668 5667
5642 5654 5677 5697 5701 5700 5691 5699 5694 5695 5695 5694 5698 5705 5703 5695 5690 5688 5686 5685 5685 5685 5683 5681 5678 5673 5670 5667 5667 5665 5662 5662 5661 5661 5661 5661 5662 5661 5661 5660 5661 5661 5662 5662 5663 5663 5665 5667 5668
5645 5653 5674 5682 5694 5699 5692 5692 5698 5699 5693 5707 5704 5700 5694 5693 5691 5688 5686 5686 5687 5685 5683 5682 5678 5675 5671 5667 5668 5666 5664 5663 5662 5661 5662 5662 5662 5662 5663 5663 5662 5662 5661 5663 5663 5663 5663 5663 5664
5632 5652 5669 5679 5683 5689 5689 5696 5693 5698 5704 5714 5711 5699 5692 5690 5691 5691 5688 5687 5688 5684 5679 5680 5678 5675 5673 5670 5669 5667 5665 5664 5663 5662 5662 5663 5663 5663 5664 5663 5662 5662 5662 5662 5662 5662 5661 5660 5660
5630 5649 5657 5670 5676 5685 5689 5690 5697 5695 5695 5709 5706 5695 5689 5686 5688 5691 5687 5686 5684 5682 5680 5676 5677 5675 5672 5670 5669 5667 5666 5665 5663 5662 5661 5662 5663 5662 5663 5662 5662 5662 5661 5661 5660 5660 5660 5659 5658
5635 5640 5649 5659 5668 5677 5682 5680 5686 5689 5691 5697 5701 5696 5692 5693 5695 5693 5692 5690 5684 5681 5678 5676 5674 5674 5671 5670 5668 5667 5665 5664 5663 5662 5662 5662 5662 5662 5661 5661 5660 5660 5659 5659 5659 5658 5657 5656 5656
5625 5628 5636 5648 5660 5665 5678 5663 5676 5688 5689 5687 5695 5694 5694 5695 5695 5694 5693 5692 5687 5682 5678 5674 5673 5672 5671 5669 5667 5666 5665 5664 5663 5662 5661 5661 5661 5661 5660 5659 5659 5657 5656 5656 5656 5655 5654 5654 5653
5612 5621 5623 5647 5651 5656 5674 5674 5680 5680 5685 5684 5689 5690 5690 5693 5692 5694 5692 5691 5687 5681 5677 5673 5671 5671 5670 5668 5666 5665 5663 5663 5663 5661 5660 5659 5659 5658 5658 5657 5656 5655 5654 5654 5654 5653 5652 5652 5652
5608 5614 5627 5631 5644 5654 5667 5678 5673 5676 5682 5683 5685 5687 5687 5688 5689 5693 5692 5690 5686 5680 5677 5673 5671 5670 5670 5667 5664 5663 5661 5659 5658 5660 5659 5657 5656 5655 5655 5655 5653 5652 5652 5651 5651 5649 5650 5650 5648
5614 5617 5626 5635 5638 5650 5659 5672 5666 5669 5679 5684 5683 5679 5681 5686 5688 5691 5689 5689 5685 5682 5679 5676 5675 5673 5670 5666 5662 5660 5658 5656 5655 5658 5657 5654 5654 5652 5653 5651 5650 5649 5648 5648 5647 5646 5644 5643 5644
5613 5616 5620 5633 5635 5649 5660 5669 5665 5662 5669 5676 5678 5672 5675 5680 5686 5686 5686 5687 5685 5683 5681 5679 5676 5674 5672 5664 5662 5658 5655 5652 5652 5653 5652 5652 5651 5650 5649 5649 5646 5646 5646 5645 5644 5643 5642 5639 5638
5599 5607 5616 5612 5623 5642 5649 5658 5658 5652 5672 5680 5677 5674 5672 5671 5680 5682 5684 5685 5684 5681 5680 5679 5677 5675 5672 5666 5663 5659 5654 5650 5650 5647 5647 5648 5647 5646 5646 5645 5644 5642 5641 5640 5639 5639 5638 5635 5633
5596 5608 5606 5620 5616 5625 5639 5646 5644 5649 5655 5666 5675 5677 5677 5677 5680 5680 5682 5683 5682 5681 5679 5678 5676 5673 5668 5665 5662 5657 5652 5647 5644 5643 5642 5643 5643 5641 5642 5640 5639 5638 5637 5636 5634 5634 5635 5633 5628
5581 5602 5608 5607 5618 5618 5631 5633 5646 5653 5652 5656 5665 5674 5679 5681 5683 5683 5682 5682 5683 5682 5680 5678 5675 5672 5669 5666 5663 5659 5656 5652 5648 5644 5640 5640 5639 5637 5636 5635 5634 5632 5632 5632 5630 5629 5628 5628 5625
5586 5594 5600 5604 5613 5611 5614 5625 5666 5649 5649 5659 5670 5676 5681 5685 5687 5688 5687 5688 5687 5682 5680 5677 5675 5671 5669 5665 5663 5660 5657 5654 5650 5643 5637 5634 5633 5632 5630 5630 5629 5627 5627 5625 5624 5623 5622 5620 5619
5577 5582 5586 5589 5594 5587 5621 5625 5655 5647 5666 5674 5679 5680 5683 5689 5690 5690 5691 5688 5685 5682 5679 5678 5675 5672 5669 5665 5662 5659 5656 5652 5647 5641 5634 5630 5629 5627 5626 5625 5624 5622 5620 5619 5617 5615 5613 5611 5609
5572 5585 5566 5568 5571 5595 5597 5606 5651 5665 5681 5690 5689 5691 5693 5690 5689 5691 5691 5689 5686 5683 5679 5676 5675 5672 5670 5666 5661 5658 5654 5652 5647 5642 5637 5630 5627 5625 5623 5621 5619 5617 5614 5612 5609 5607 5605 5602 5600
5581 5597 5592 5582 5585 5596 5578 5595 5639 5671 5674 5678 5685 5692 5688 5685 5689 5693 5694 5690 5687 5682 5679 5677 5675 5673 5669 5666 5660 5656 5652 5649 5647 5642 5638 5632 5630 5627 5622 5618 5615 5611 5608 5605 5602 5599 5595 5592 5588
5572 5575 5600 5580 5572 5597 5607 5612 5637 5653 5657 5664 5672 5673 5680 5691 5692 5696 5693 5689 5688 5683 5681 5680 5675 5672 5668 5665 5660 5654 5650 5645 5642 5639 5636 5632 5628 5624 5617 5614 5611 5605 5601 5599 5595 5591 5586 5582 5578
5583 5595 5572 5577 5571 5587 5588 5615 5634 5646 5660 5664 5668 5675 5686 5691 5690 5689 5689 5687 5686 5684 5679 5677 5676 5672 5667 5663 5660 5655 5649 5643 5639 5636 5634 5630 5623 5617 5611 5607 5605 5599 5593 5590 5587 5580 5576 5572 5568
5566 5571 5581 5594 5583 5597 5603 5616 5647 5660 5667 5675 5681 5686 5689 5684 5681 5680 5681 5681 5680 5677 5675 5672 5670 5668 5665 5660 5656 5652 5648 5642 5637 5634 5630 5627 5620 5612 5608 5602 5597 5592 5586 5581 5578 5573 5567 5562 5556
5581 5584 5587 5580 5576 5576 5595 5625 5635 5644 5650 5658 5671 5671 5670 5669 5669 5669 5671 5671 5670 5670 5669 5668 5664 5662 5662 5659 5653 5649 5644 5639 5635 5631 5626 5620 5615 5608 5601 5594 5589 5585 5580 5575 5570 5563 5557 5551 5544